• Join FlightAware (Why Join?)
  • Login
  • US Flag GB Flag 
21:36 EDT


 

Airport Tracker/Info


-or-


 

Live Flight TrackerFlight Track Log ✈ AAL963 ✈ 24-Apr-2013 ✈ KDFW - SBGR / GRU

Flight Track Log - Related Links

Times and Time Zones

All times are in EDT time to prevent confusion due to time zone crossing. See the AAL963 flight status page for this flight to view local times or setup timezone preferences in your user account.

Time Position Orientation Groundspeed Altitude Reporting Facility
EDT Latitude Longitude Course Direction KTS MPH feet Rate Location/Type
21:09 32.9390 -97.0260 North 179 206 1,900  Level FlightAware
21:10 32.9660 -97.0210 North 222 255 2,100 960 Climbing FlightAware
21:10 32.9940 -97.0160 North 240 276 2,800 1,920 Climbing FlightAware
21:11 33.0280 -97.0090 10° North 246 283 3,900 1,980 Climbing FlightAware
21:11 33.0410 -96.9990 33° Northeast 248 285 4,300 1,560 Climbing FlightAware
21:11 33.0510 -96.9820 55° Northeast 258 297 4,700 1,680 Climbing FlightAware
21:12 33.0530 -96.9680 80° East 265 305 5,000 1,920 Climbing FlightAware
21:12 33.0410 -96.9240 108° East 278 320 6,000 1,920 Climbing FlightAware
21:12 33.0240 -96.8920 122° Southeast 287 330 6,800 1,740 Climbing FlightAware
21:13 33.0030 -96.8500 121° Southeast 306 352 7,600 1,800 Climbing FlightAware
21:13 32.9800 -96.8020 120° Southeast 315 362 8,600 1,800 Climbing FlightAware
21:14 32.9630 -96.7650 119° Southeast 324 373 9,300 1,620 Climbing FlightAware
21:15 32.9310 -96.6950 119° Southeast 346 398 10,500 1,680 Climbing FlightAware
21:15 32.9020 -96.6320 119° Southeast 364 419 11,600 2,160 Climbing FlightAware
21:16 32.8670 -96.5570 119° Southeast 369 425 13,400 1,680 Climbing FlightAware
21:17 32.8260 -96.4690 119° Southeast 411 473 14,200 1,620 Climbing FlightAware
21:17 32.7880 -96.3900 120° Southeast 421 484 15,700 2,160 Climbing FlightAware
21:18 32.7540 -96.2890 112° Southeast 441 507 17,300 2,100 Climbing FlightAware
21:19 32.7390 -96.1970 101° East 449 517 18,700 1,860 Climbing FlightAware
21:19 32.7240 -96.0980 100° East 466 536 19,800 1,800 Climbing FlightAware
21:20 32.7060 -95.9810 100° East 476 548 21,300 1,800 Climbing FlightAware
21:21 32.6920 -95.8900 100° East 480 552 22,400 1,740 Climbing FlightAware
21:21 32.6750 -95.7880 101° East 491 565 23,500 1,620 Climbing FlightAware
21:22 32.6590 -95.6470 98° East 510 587 24,700 1,440 Climbing FlightAware
21:22 32.6591 -95.6262 90° East 511 588 24,900 1,320 Climbing FlightAware ADS-B
21:23 32.6640 -95.5490 86° East 518 596 25,600 1,440 Climbing FlightAware
21:23 32.6682 -95.4826 86° East 515 593 26,100  Climbing FlightAware ADS-B
21:24 32.6790 -95.3350 85° East 518 596 25,600 1,260 Descending FlightAware
21:25 32.6870 -95.2010 86° East 537 618 28,300 2,580 Climbing FlightAware
21:26 32.6984 -95.0307 85° East 546 628 29,400 1,080 Climbing FlightAware ADS-B
21:26 32.7050 -94.9270 86° East 553 636 30,000 1,020 Climbing FlightAware
21:27 32.7082 -94.8747 86° East 554 638 30,300 960 Climbing FlightAware ADS-B
21:27 32.7085 -94.8442 89° East 558 642 30,400 900 Climbing FlightAware ADS-B
21:27 32.7042 -94.7936 96° East 560 644 30,700 960 Climbing FlightAware ADS-B
21:28 32.6691 -94.6616 107° East 562 647 31,400 900 Climbing FlightAware ADS-B
21:29 32.6309 -94.5490 112° Southeast 565 650 32,000 1,200 Climbing FlightAware ADS-B
21:29 32.6011 -94.4631 112° Southeast 561 646 32,800 1,440 Climbing FlightAware ADS-B
21:30 32.5626 -94.3523 112° Southeast 559 643 33,700 1,200 Climbing FlightAware ADS-B
21:30 32.5329 -94.2666 112° Southeast 557 641 34,200 1,020 Climbing FlightAware ADS-B
21:31 32.5018 -94.1765 112° Southeast 556 640 34,800 960 Climbing FlightAware ADS-B
21:31 32.4643 -94.0678 112° Southeast 554 638 35,400 900 Climbing FlightAware ADS-B
21:32 32.4348 -93.9829 112° Southeast 554 638 35,900 780 Climbing FlightAware ADS-B
21:33 32.3849 -93.8389 112° Southeast 555 639 36,500 660 Climbing FlightAware ADS-B
21:33 32.3535 -93.7488 112° Southeast 553 636 36,900 480 Climbing FlightAware ADS-B
21:34 32.3241 -93.6646 112° Southeast 553 636 37,000 60 Climbing FlightAware ADS-B
21:34 32.2939 -93.5783 112° Southeast 552 635 37,000  Level FlightAware ADS-B
21:35 32.2635 -93.4919 113° Southeast 551 634 37,000  Level FlightAware ADS-B
21:38 32.0748 -92.9600 113° Southeast 548 631 37,000  Level FlightAware ADS-B
21:39 32.0429 -92.8709 113° Southeast 548 631 37,000  Level FlightAware ADS-B
21:41 31.9294 -92.5136 110° East 549 632 37,000  Level FlightAware ADS-B
21:44 31.7877 -91.9856 107° East 549 632 37,000  Level FlightAware ADS-B
21:45 31.7617 -91.8897 107° East 552 635 37,000  Level Houston Center
21:46 31.7167 -91.7200 107° East 546 628 37,000  Level Houston Center
21:47 31.6697 -91.5500 108° East 545 627 37,000  Level Houston Center
21:48 31.6128 -91.3453 108° East 548 631 37,000  Level Houston Center
21:54 31.3230 -90.3240 108° East 544 626 37,000  Level FlightAware
21:54 31.2940 -90.2100 107° East 545 627 37,000  Level FlightAware
21:55 31.2800 -90.0580 96° East 549 632 37,000  Level FlightAware
21:56 31.2660 -89.9420 98° East 548 631 37,000  Level FlightAware
21:57 31.2530 -89.8320 98° East 549 632 37,000  Level FlightAware
21:57 31.2350 -89.6890 98° East 549 632 37,000  Level FlightAware
21:58 31.2210 -89.5720 98° East 549 632 37,000  Level FlightAware
21:59 31.2050 -89.4440 98° East 549 632 37,000  Level FlightAware
21:59 31.1900 -89.3260 98° East 549 632 37,000  Level FlightAware
22:00 31.1750 -89.2080 98° East 550 633 37,000  Level FlightAware
22:01 31.1580 -89.0750 98° East 552 635 37,000  Level FlightAware
22:02 31.1410 -88.9450 99° East 553 636 37,000  Level FlightAware
22:02 31.1260 -88.8290 99° East 553 636 37,000  Level FlightAware
22:03 31.1080 -88.6920 99° East 554 638 37,000  Level FlightAware
22:04 31.0920 -88.5720 99° East 554 638 37,000  Level FlightAware
22:04 31.0770 -88.4570 99° East 555 639 37,000  Level FlightAware
22:05 31.0590 -88.3260 99° East 554 638 37,000  Level FlightAware
22:06 31.0430 -88.2070 99° East 554 638 37,000  Level FlightAware
22:06 31.0270 -88.0910 99° East 554 638 37,000  Level FlightAware
22:07 31.0080 -87.9540 99° East 554 638 37,000  Level FlightAware
22:08 30.9950 -87.8530 99° East 554 638 37,000  Level FlightAware
22:08 30.9780 -87.7330 99° East 554 638 37,000  Level FlightAware
22:09 30.9600 -87.6010 99° East 554 638 37,000  Level FlightAware
22:10 30.9460 -87.5010 99° East 554 638 37,000  Level FlightAware
22:11 30.9220 -87.3380 100° East 552 635 37,000  Level FlightAware
22:11 30.9050 -87.2190 99° East 551 634 37,000  Level FlightAware
22:12 30.8870 -87.0970 100° East 551 634 37,000  Level FlightAware
22:13 30.8700 -86.9750 99° East 551 634 37,000  Level FlightAware
22:13 30.8500 -86.8400 100° East 551 634 37,000  Level FlightAware
22:14 30.8350 -86.7330 99° East 552 635 37,000  Level FlightAware
22:15 30.8260 -86.6310 96° East 553 636 37,000  Level FlightAware
22:16 30.8220 -86.4780 92° East 553 636 37,000  Level FlightAware
22:16 30.8190 -86.3620 92° East 553 636 37,000  Level FlightAware
22:17 30.8170 -86.2420 91° East 554 638 37,000  Level FlightAware
22:18 30.8150 -86.1320 91° East 554 638 37,000  Level FlightAware
22:18 30.8140 -86.1070 93° East 554 638 37,000  Level FlightAware
22:19 30.8130 -86.0060 91° East 554 638 37,000  Level FlightAware
22:20 30.8110 -85.9040 91° East 554 638 37,000  Level FlightAware
22:20 30.8100 -85.7770 90° East 554 638 37,000  Level FlightAware
22:21 30.8080 -85.6760 91° East 554 638 37,000  Level FlightAware
22:22 30.8060 -85.5750 91° East 554 638 37,000  Level FlightAware
22:22 30.8050 -85.4730 91° East 554 638 37,000  Level FlightAware
22:23 30.8030 -85.3720 91° East 554 638 37,000  Level FlightAware
22:24 30.8020 -85.2700 91° East 554 638 37,000  Level FlightAware
22:25 30.8000 -85.1430 91° East 554 638 37,000  Level FlightAware
22:25 30.7980 -85.0420 91° East 554 638 37,000  Level FlightAware
22:27 30.6040 -84.5240 113° Southeast 551 634 37,000  Level FlightAware
22:28 30.5480 -84.3910 116° Southeast 542 624 37,000  Level FlightAware
22:28 30.4710 -84.3180 141° Southeast 524 603 37,000  Level FlightAware
22:29 30.3740 -84.2540 150° Southeast 525 604 37,000  Level FlightAware
22:30 30.2980 -84.2040 150° Southeast 524 603 37,000  Level FlightAware
22:30 30.1920 -84.1360 151° Southeast 522 601 37,000  Level FlightAware
22:31 30.0830 -84.0650 151° Southeast 520 598 37,000  Level FlightAware
22:32 29.9970 -84.0090 151° Southeast 520 598 37,000  Level FlightAware
22:33 29.9030 -83.9480 151° Southeast 519 597 37,000  Level FlightAware
22:33 29.8180 -83.8920 150° Southeast 519 597 37,000  Level FlightAware
22:34 29.7230 -83.8320 151° Southeast 517 595 37,000  Level FlightAware
22:35 29.6510 -83.7850 150° Southeast 516 594 37,000  Level FlightAware
22:36 29.5470 -83.7180 151° Southeast 517 595 37,000  Level FlightAware
22:36 29.4650 -83.6650 151° Southeast 518 596 37,000  Level FlightAware
22:37 29.3780 -83.6100 151° Southeast 518 596 37,000  Level FlightAware
22:38 29.2870 -83.5510 151° Southeast 519 597 37,000  Level FlightAware
22:38 29.2000 -83.4960 151° Southeast 519 597 37,000  Level FlightAware
22:39 29.1030 -83.4340 151° Southeast 515 593 37,000  Level FlightAware
22:40 29.0300 -83.3880 151° Southeast 516 594 37,000  Level FlightAware
22:40 28.9330 -83.3270 151° Southeast 519 597 37,000  Level FlightAware
22:41 28.8700 -83.2870 151° Southeast 522 601 37,000  Level FlightAware
22:42 28.7730 -83.2250 151° Southeast 530 610 37,000  Level FlightAware
22:42 28.6870 -83.1710 151° Southeast 529 609 37,000  Level FlightAware
22:43 28.6010 -83.1170 151° Southeast 530 610 37,000  Level FlightAware
22:44 28.5040 -83.0560 151° Southeast 531 611 37,000  Level FlightAware
22:44 28.4190 -83.0030 151° Southeast 531 611 37,000  Level FlightAware
22:45 28.3200 -82.9410 151° Southeast 532 612 37,000  Level FlightAware
22:46 28.2360 -82.8890 151° Southeast 533 613 37,000  Level FlightAware
22:47 28.1470 -82.8330 151° Southeast 534 615 37,000  Level FlightAware
22:47 28.0610 -82.7580 142° Southeast 544 626 37,000  Level FlightAware
22:48 27.9910 -82.6730 133° Southeast 550 633 37,000  Level FlightAware
22:49 27.9250 -82.5850 130° Southeast 553 636 37,000  Level FlightAware
22:49 27.8540 -82.4820 128° Southeast 553 636 37,000  Level FlightAware
22:50 27.7890 -82.3900 129° Southeast 548 631 37,000  Level FlightAware
22:51 27.7150 -82.2850 129° Southeast 552 635 37,000  Level FlightAware
22:51 27.6540 -82.1990 129° Southeast 554 638 37,000  Level FlightAware
22:52 27.5800 -82.0960 129° Southeast 556 640 37,000  Level FlightAware
22:53 27.5210 -82.0120 128° Southeast 556 640 37,000  Level FlightAware
22:54 27.4510 -81.9160 129° Southeast 557 641 37,000  Level FlightAware
22:54 27.3800 -81.8150 128° Southeast 558 642 37,000  Level FlightAware
22:55 27.3160 -81.7260 129° Southeast 554 638 37,000  Level FlightAware
22:56 27.2420 -81.6240 129° Southeast 560 644 37,000  Level FlightAware
22:56 27.1780 -81.5340 129° Southeast 560 644 37,000  Level FlightAware
22:57 27.1110 -81.4420 129° Southeast 561 646 37,000  Level FlightAware
22:58 27.0390 -81.3410 129° Southeast 561 646 37,000  Level FlightAware
22:58 26.9720 -81.2490 129° Southeast 562 647 37,000  Level FlightAware
22:59 26.9130 -81.1680 129° Southeast 562 647 37,000  Level FlightAware
23:00 26.8320 -81.0560 129° Southeast 562 647 37,000  Level FlightAware
23:01 26.7160 -80.8980 129° Southeast 562 647 37,000  Level FlightAware
23:02 26.6010 -80.7400 129° Southeast 563 648 37,000  Level FlightAware
23:04 26.4600 -80.5480 129° Southeast 564 649 37,000  Level FlightAware
23:05 26.3470 -80.3940 129° Southeast 564 649 37,000  Level FlightAware
23:06 26.2280 -80.2340 130° Southeast 561 646 37,000  Level FlightAware
23:07 26.1440 -80.1200 129° Southeast 561 646 37,000  Level FlightAware
23:08 26.0690 -80.0190 130° Southeast 562 647 37,000  Level FlightAware
23:08 25.9950 -79.9210 130° Southeast 562 647 37,000  Level FlightAware
23:09 25.8770 -79.7630 130° Southeast 562 647 37,000  Level FlightAware
23:10 25.8260 -79.6950 130° Southeast 563 648 37,000  Level FlightAware
23:11 25.7340 -79.5730 130° Southeast 563 648 37,000  Level FlightAware
23:12 25.6160 -79.4150 130° Southeast 565 650 37,000  Level FlightAware
23:13 25.5080 -79.2730 130° Southeast 566 651 37,000  Level FlightAware
23:14 25.3870 -79.1130 130° Southeast 572 658 37,000  Level FlightAware
23:16 25.2450 -78.9270 130° Southeast 570 656 37,000  Level FlightAware
23:17 25.1320 -78.7780 130° Southeast 564 649 37,000  Level FlightAware
23:17 25.0810 -78.7090 129° Southeast 564 649 37,000  Level FlightAware
23:18 25.0110 -78.6140 129° Southeast 564 649 37,000  Level FlightAware
23:19 24.9560 -78.5380 129° Southeast 564 649 37,000  Level FlightAware
23:20 24.9000 -78.4620 129° Southeast 564 649 37,000  Level FlightAware
23:20 24.8440 -78.3860 129° Southeast 564 649 37,000  Level FlightAware
23:21 24.7880 -78.3100 129° Southeast 564 649 37,000  Level FlightAware
23:22 24.7180 -78.2150 129° Southeast 564 649 37,000  Level FlightAware
23:22 24.6620 -78.1390 129° Southeast 564 649 37,000  Level FlightAware
23:23 24.6070 -78.0630 129° Southeast 564 649 37,000  Level FlightAware
23:24 24.5510 -77.9880 129° Southeast 564 649 37,000  Level FlightAware
23:24 24.4950 -77.9120 129° Southeast 564 649 37,000  Level FlightAware
23:25 24.4250 -77.8170 129° Southeast 564 649 37,000  Level FlightAware
23:26 24.3690 -77.7410 129° Southeast 564 649 37,000  Level FlightAware
23:27 24.3130 -77.6660 129° Southeast 564 649 37,000  Level FlightAware
23:27 24.0917 -77.4417 129° Southeast 559 643 37,000  Level Miami Center
23:28 23.9897 -77.3139 131° Southeast 559 643 37,000  Level Miami Center
23:29 23.8856 -77.1883 132° Southeast 559 643 37,000  Level Miami Center
23:30 23.7769 -77.0519 131° Southeast 547 629 37,000  Level Miami Center
23:31 23.6747 -76.9292 132° Southeast 547 629 37,000  Level Miami Center
23:32 23.5703 -76.8022 132° Southeast 547 629 37,000  Level Miami Center
23:33 23.4678 -76.6778 132° Southeast 542 624 37,000  Level Miami Center
23:34 23.3653 -76.5556 132° Southeast 542 624 37,000  Level Miami Center
23:35 23.2603 -76.4314 133° Southeast 542 624 37,000  Level Miami Center
23:36 23.1575 -76.3075 132° Southeast 542 624 37,000  Level Miami Center
23:37 23.0547 -76.1861 133° Southeast 542 624 37,000  Level Miami Center
23:38 22.9517 -76.0625 132° Southeast 542 624 37,000  Level Miami Center
23:39 22.8486 -75.9392 132° Southeast 542 624 37,000  Level Miami Center
23:40 22.7558 -75.8272 132° Southeast 542 624 37,000  Level Miami Center
23:41 22.6528 -75.7042 132° Southeast 548 631 37,000  Level Miami Center
23:42 22.5494 -75.5836 133° Southeast 543 625 37,000  Level Miami Center
23:43 22.4481 -75.4611 132° Southeast 543 625 37,000  Level Miami Center
23:44 22.3444 -75.3364 132° Southeast 543 625 37,000  Level Miami Center
23:45 22.2408 -75.2186 134° Southeast 543 625 37,000  Level Miami Center
23:46 22.1369 -75.0967 133° Southeast 543 625 37,000  Level Miami Center
23:47 22.0250 -74.9817 136° Southeast 543 625 37,000  Level Miami Center
23:48 21.9086 -74.8694 138° Southeast 550 633 37,000  Level Miami Center
23:49 21.7925 -74.7614 139° Southeast 555 639 37,000  Level Miami Center
23:50 21.6694 -74.6383 137° Southeast 549 632 37,000 -60 Level Miami Center
23:51 21.5531 -74.5286 139° Southeast 549 632 36,900  Descending Miami Center
23:52 21.4344 -74.4192 139° Southeast 555 639 37,000  Climbing Miami Center
23:53 21.3178 -74.3078 138° Southeast 560 644 37,000  Level Miami Center
23:54 21.1989 -74.1964 139° Southeast 565 650 37,000 -60 Level Miami Center
23:55 21.0800 -74.0853 139° Southeast 565 650 36,900  Descending Miami Center
23:56 20.9656 -73.9789 139° Southeast 565 650 37,000  Climbing Miami Center
23:57 20.8486 -73.8703 139° Southeast 565 650 37,000  Level Miami Center
23:58 20.7275 -73.7575 139° Southeast 565 650 37,000 -60 Level Miami Center
23:59 20.6106 -73.6494 139° Southeast 565 650 36,900  Descending Miami Center
00:00 20.4914 -73.5372 139° Southeast 570 656 37,000  Climbing Miami Center
00:01 20.3764 -73.4314 139° Southeast 563 648 37,000 -60 Level Miami Center
00:02 20.2572 -73.3239 140° Southeast 563 648 36,900  Descending Miami Center
00:03 20.1378 -73.2144 139° Southeast 569 655 37,000  Climbing Miami Center
00:04 20.0186 -73.1117 141° Southeast 564 649 37,000  Level Miami Center
00:05 19.8931 -73.0114 143° Southeast 559 643 37,000  Level Miami Center
00:07 19.7517 -72.8943 142° Southeast  Level FlightAware Approximate
00:14 18.9991 -72.2753 142° Southeast  Level FlightAware Approximate
00:15 18.8914 -72.1873 142° Southeast  Level FlightAware Approximate
00:16 18.7836 -72.0994 142° Southeast  Level FlightAware Approximate
00:17 18.6759 -72.0117 142° Southeast  Level FlightAware Approximate
00:18 18.5708 -71.9208 137° Southeast  Level FlightAware Approximate
00:19 18.4655 -71.8308 146° Southeast  Level FlightAware Approximate
00:20 18.3521 -71.7515 146° Southeast  Level FlightAware Approximate
00:21 18.2416 -71.6678 144° Southeast  Level FlightAware Approximate
00:22 18.1318 -71.5832 144° Southeast  Level FlightAware Approximate
00:23 18.0219 -71.4987 144° Southeast  Level FlightAware Approximate
00:24 17.9120 -71.4144 144° Southeast  Level FlightAware Approximate
00:25 17.8020 -71.3301 144° Southeast  Level FlightAware Approximate
00:26 17.6921 -71.2459 144° Southeast  Level FlightAware Approximate
00:27 17.5821 -71.1618 144° Southeast  Level FlightAware Approximate
00:28 17.4720 -71.0779 144° Southeast  Level FlightAware Approximate
00:29 17.3619 -70.9940 144° Southeast  Level FlightAware Approximate
00:30 17.2518 -70.9103 144° Southeast  Level FlightAware Approximate
00:31 17.1417 -70.8266 144° Southeast  Level FlightAware Approximate
00:32 17.0315 -70.7430 144° Southeast  Level FlightAware Approximate
00:33 16.9212 -70.6596 144° Southeast  Level FlightAware Approximate
00:34 16.8110 -70.5762 144° Southeast  Level FlightAware Approximate
00:35 16.7007 -70.4929 144° Southeast  Level FlightAware Approximate
00:36 16.5904 -70.4098 144° Southeast  Level FlightAware Approximate
00:37 16.4800 -70.3267 144° Southeast  Level FlightAware Approximate
00:38 16.3696 -70.2437 144° Southeast  Level FlightAware Approximate
00:39 16.2592 -70.1608 144° Southeast  Level FlightAware Approximate
00:40 16.1488 -70.0780 144° Southeast  Level FlightAware Approximate
00:41 16.0383 -69.9953 144° Southeast  Level FlightAware Approximate
00:42 15.9278 -69.9126 144° Southeast  Level FlightAware Approximate
00:43 15.8174 -69.8300 144° Southeast  Level FlightAware Approximate
00:44 15.7069 -69.7475 144° Southeast  Level FlightAware Approximate
00:45 15.5963 -69.6650 144° Southeast  Level FlightAware Approximate
00:46 15.4857 -69.5827 144° Southeast  Level FlightAware Approximate
00:47 15.3751 -69.5004 144° Southeast  Level FlightAware Approximate
00:48 15.2645 -69.4182 144° Southeast  Level FlightAware Approximate
00:49 15.1538 -69.3362 144° Southeast  Level FlightAware Approximate
00:50 15.0432 -69.2541 144° Southeast  Level FlightAware Approximate
00:51 14.9324 -69.1722 144° Southeast  Level FlightAware Approximate
00:52 14.8217 -69.0904 144° Southeast  Level FlightAware Approximate
00:53 14.7109 -69.0086 144° Southeast  Level FlightAware Approximate
00:54 14.6001 -68.9269 144° Southeast  Level FlightAware Approximate
00:55 14.4893 -68.8454 145° Southeast  Level FlightAware Approximate
00:56 14.3784 -68.7638 145° Southeast  Level FlightAware Approximate
00:57 14.2675 -68.6824 145° Southeast  Level FlightAware Approximate
00:58 14.1566 -68.6011 145° Southeast  Level FlightAware Approximate
00:59 14.0457 -68.5198 145° Southeast  Level FlightAware Approximate
01:00 13.9347 -68.4386 145° Southeast  Level FlightAware Approximate
01:01 13.8237 -68.3575 145° Southeast  Level FlightAware Approximate
01:02 13.7127 -68.2765 145° Southeast  Level FlightAware Approximate
01:03 13.6016 -68.1955 145° Southeast  Level FlightAware Approximate
01:04 13.4906 -68.1146 145° Southeast  Level FlightAware Approximate
01:05 13.3795 -68.0338 145° Southeast  Level FlightAware Approximate
01:06 13.2683 -67.9531 145° Southeast  Level FlightAware Approximate
01:07 13.1572 -67.8724 145° Southeast  Level FlightAware Approximate
01:08 13.0460 -67.7918 145° Southeast  Level FlightAware Approximate
01:09 12.9348 -67.7113 145° Southeast  Level FlightAware Approximate
01:10 12.8235 -67.6310 145° Southeast  Level FlightAware Approximate
01:11 12.7119 -67.5511 145° Southeast  Level FlightAware Approximate
01:12 12.6003 -67.4713 145° Southeast  Level FlightAware Approximate
01:13 12.4887 -67.3915 145° Southeast  Level FlightAware Approximate
01:14 12.3771 -67.3118 145° Southeast  Level FlightAware Approximate
01:15 12.2654 -67.2322 145° Southeast  Level FlightAware Approximate
01:16 12.1537 -67.1526 145° Southeast  Level FlightAware Approximate
01:17 12.0420 -67.0731 145° Southeast  Level FlightAware Approximate
01:18 11.9303 -66.9937 145° Southeast  Level FlightAware Approximate
01:19 11.8185 -66.9143 145° Southeast  Level FlightAware Approximate
01:20 11.7068 -66.8350 145° Southeast  Level FlightAware Approximate
01:21 11.5950 -66.7558 145° Southeast  Level FlightAware Approximate
01:22 11.4831 -66.6766 145° Southeast  Level FlightAware Approximate
01:23 11.3713 -66.5975 145° Southeast  Level FlightAware Approximate
01:24 11.2594 -66.5184 145° Southeast  Level FlightAware Approximate
01:25 11.1479 -66.4390 145° Southeast  Level FlightAware Approximate
01:26 11.0365 -66.3594 145° Southeast  Level FlightAware Approximate
01:27 10.9250 -66.2799 145° Southeast  Level FlightAware Approximate
01:28 10.8135 -66.2004 145° Southeast  Level FlightAware Approximate
01:29 10.7020 -66.1210 145° Southeast  Level FlightAware Approximate
01:30 10.5905 -66.0416 145° Southeast  Level FlightAware Approximate
01:31 10.4789 -65.9624 145° Southeast  Level FlightAware Approximate
01:32 10.3673 -65.8831 145° Southeast  Level FlightAware Approximate
01:33 10.2557 -65.8040 145° Southeast  Level FlightAware Approximate
01:34 10.1441 -65.7248 145° Southeast  Level FlightAware Approximate
01:35 10.0325 -65.6458 145° Southeast  Level FlightAware Approximate
01:36 9.9209 -65.5668 145° Southeast  Level FlightAware Approximate
01:37 9.8093 -65.4875 145° Southeast  Level FlightAware Approximate
01:38 9.6981 -65.4080 145° Southeast  Level FlightAware Approximate
01:39 9.5869 -65.3284 145° Southeast  Level FlightAware Approximate
01:40 9.4756 -65.2489 145° Southeast  Level FlightAware Approximate
01:41 9.3644 -65.1695 145° Southeast  Level FlightAware Approximate
01:42 9.2531 -65.0901 145° Southeast  Level FlightAware Approximate
01:43 9.1418 -65.0108 145° Southeast  Level FlightAware Approximate
01:44 9.0267 -64.9297 145° Southeast  Level FlightAware Approximate
01:45 8.9117 -64.8486 145° Southeast  Level FlightAware Approximate
01:46 8.7967 -64.7676 145° Southeast  Level FlightAware Approximate
01:47 8.6816 -64.6867 145° Southeast  Level FlightAware Approximate
01:48 8.5666 -64.6057 145° Southeast  Level FlightAware Approximate
01:49 8.4515 -64.5249 145° Southeast  Level FlightAware Approximate
01:50 8.3364 -64.4440 145° Southeast  Level FlightAware Approximate
01:51 8.2213 -64.3633 145° Southeast  Level FlightAware Approximate
01:52 8.1061 -64.2825 145° Southeast  Level FlightAware Approximate
01:53 7.9910 -64.2018 145° Southeast  Level FlightAware Approximate
01:54 7.8758 -64.1212 145° Southeast  Level FlightAware Approximate
01:55 7.7606 -64.0406 145° Southeast  Level FlightAware Approximate
01:56 7.6454 -63.9601 145° Southeast  Level FlightAware Approximate
01:57 7.5299 -63.8800 146° Southeast  Level FlightAware Approximate
01:58 7.4141 -63.8004 146° Southeast  Level FlightAware Approximate
01:59 7.2982 -63.7209 146° Southeast  Level FlightAware Approximate
02:00 7.1823 -63.6414 146° Southeast  Level FlightAware Approximate
02:01 7.0664 -63.5620 146° Southeast  Level FlightAware Approximate
02:02 6.9505 -63.4826 146° Southeast  Level FlightAware Approximate
02:03 6.8346 -63.4033 146° Southeast  Level FlightAware Approximate
02:04 6.7187 -63.3240 146° Southeast  Level FlightAware Approximate
02:05 6.6027 -63.2447 146° Southeast  Level FlightAware Approximate
02:06 6.4868 -63.1655 146° Southeast  Level FlightAware Approximate
02:07 6.3708 -63.0863 146° Southeast  Level FlightAware Approximate
02:08 6.2554 -63.0075 146° Southeast  Level FlightAware Approximate
02:09 6.1401 -62.9288 146° Southeast  Level FlightAware Approximate
02:10 6.0247 -62.8502 146° Southeast  Level FlightAware Approximate
02:11 5.9095 -62.7712 146° Southeast  Level FlightAware Approximate
02:12 5.7944 -62.6922 146° Southeast  Level FlightAware Approximate
02:13 5.6792 -62.6133 146° Southeast  Level FlightAware Approximate
02:14 5.5641 -62.5344 146° Southeast  Level FlightAware Approximate
02:15 5.4489 -62.4554 146° Southeast  Level FlightAware Approximate
02:16 5.3338 -62.3766 146° Southeast  Level FlightAware Approximate
02:17 5.2186 -62.2977 146° Southeast  Level FlightAware Approximate
02:18 5.1034 -62.2189 146° Southeast  Level FlightAware Approximate
02:19 4.9882 -62.1401 146° Southeast  Level FlightAware Approximate
02:20 4.8730 -62.0614 146° Southeast  Level FlightAware Approximate
02:21 4.7578 -61.9827 146° Southeast  Level FlightAware Approximate
02:22 4.6425 -61.9040 146° Southeast  Level FlightAware Approximate
02:23 4.5273 -61.8253 146° Southeast  Level FlightAware Approximate
02:24 4.4120 -61.7467 146° Southeast  Level FlightAware Approximate
02:25 4.2968 -61.6680 146° Southeast  Level FlightAware Approximate
02:26 4.1815 -61.5894 146° Southeast  Level FlightAware Approximate
02:27 4.0663 -61.5109 146° Southeast  Level FlightAware Approximate
02:28 3.9510 -61.4323 146° Southeast  Level FlightAware Approximate
02:29 3.8357 -61.3538 146° Southeast  Level FlightAware Approximate
02:30 3.7204 -61.2753 146° Southeast  Level FlightAware Approximate
02:31 3.6051 -61.1968 146° Southeast  Level FlightAware Approximate
02:32 3.4898 -61.1183 146° Southeast  Level FlightAware Approximate
02:33 3.3745 -61.0399 146° Southeast  Level FlightAware Approximate
02:34 3.2592 -60.9614 146° Southeast  Level FlightAware Approximate
02:35 3.1438 -60.8830 146° Southeast  Level FlightAware Approximate
02:36 3.0285 -60.8046 146° Southeast  Level FlightAware Approximate
02:37 2.9132 -60.7262 146° Southeast  Level FlightAware Approximate
02:38 2.7938 -60.6546 153° Southeast  Level FlightAware Approximate
02:39 2.6699 -60.5912 153° Southeast  Level FlightAware Approximate
02:40 2.5460 -60.5278 153° Southeast  Level FlightAware Approximate
02:41 2.4221 -60.4645 153° Southeast  Level FlightAware Approximate
02:42 2.2982 -60.4011 153° Southeast  Level FlightAware Approximate
02:43 2.1743 -60.3378 153° Southeast  Level FlightAware Approximate
02:44 2.0504 -60.2745 153° Southeast  Level FlightAware Approximate
02:45 1.9265 -60.2112 153° Southeast  Level FlightAware Approximate
02:46 1.8025 -60.1479 153° Southeast  Level FlightAware Approximate
02:47 1.6786 -60.0846 153° Southeast  Level FlightAware Approximate
02:48 1.5547 -60.0213 153° Southeast  Level FlightAware Approximate
02:49 1.4308 -59.9580 153° Southeast  Level FlightAware Approximate
02:50 1.3068 -59.8947 153° Southeast  Level FlightAware Approximate
02:51 1.1829 -59.8315 153° Southeast  Level FlightAware Approximate
02:52 1.0590 -59.7682 153° Southeast  Level FlightAware Approximate
02:53 0.9350 -59.7049 153° Southeast  Level FlightAware Approximate
02:54 0.8111 -59.6417 153° Southeast  Level FlightAware Approximate
02:55 0.6872 -59.5784 153° Southeast  Level FlightAware Approximate
02:56 0.5632 -59.5152 153° Southeast  Level FlightAware Approximate
02:57 0.4393 -59.4520 153° Southeast  Level FlightAware Approximate
02:58 0.3153 -59.3887 153° Southeast  Level FlightAware Approximate
02:59 0.1914 -59.3255 153° Southeast  Level FlightAware Approximate
03:00 0.0675 -59.2622 153° Southeast  Level FlightAware Approximate
03:01 -0.0565 -59.1990 153° Southeast  Level FlightAware Approximate
03:02 -0.1804 -59.1358 153° Southeast  Level FlightAware Approximate
03:03 -0.3043 -59.0725 153° Southeast  Level FlightAware Approximate
03:04 -0.4283 -59.0093 153° Southeast  Level FlightAware Approximate
03:05 -0.5522 -58.9460 153° Southeast  Level FlightAware Approximate
03:06 -0.6762 -58.8828 153° Southeast  Level FlightAware Approximate
03:07 -0.8001 -58.8196 153° Southeast  Level FlightAware Approximate
03:08 -0.9240 -58.7563 153° Southeast  Level FlightAware Approximate
03:09 -1.0480 -58.6931 153° Southeast  Level FlightAware Approximate
03:10 -1.1719 -58.6298 153° Southeast  Level FlightAware Approximate
03:11 -1.2958 -58.5665 153° Southeast  Level FlightAware Approximate
03:12 -1.4198 -58.5033 153° Southeast  Level FlightAware Approximate
03:13 -1.5437 -58.4400 153° Southeast  Level FlightAware Approximate
03:14 -1.6676 -58.3767 153° Southeast  Level FlightAware Approximate
03:15 -1.7915 -58.3134 153° Southeast  Level FlightAware Approximate
03:16 -1.9155 -58.2501 153° Southeast  Level FlightAware Approximate
03:17 -2.0394 -58.1868 153° Southeast  Level FlightAware Approximate
03:18 -2.1633 -58.1235 153° Southeast  Level FlightAware Approximate
03:19 -2.2872 -58.0601 153° Southeast  Level FlightAware Approximate
03:20 -2.4111 -57.9968 153° Southeast  Level FlightAware Approximate
03:21 -2.5350 -57.9334 153° Southeast  Level FlightAware Approximate
03:22 -2.6589 -57.8700 153° Southeast  Level FlightAware Approximate
03:23 -2.7828 -57.8067 153° Southeast  Level FlightAware Approximate
03:24 -2.9067 -57.7433 153° Southeast  Level FlightAware Approximate
03:25 -3.0306 -57.6799 153° Southeast  Level FlightAware Approximate
03:26 -3.1545 -57.6165 153° Southeast  Level FlightAware Approximate
03:27 -3.2784 -57.5530 153° Southeast  Level FlightAware Approximate
03:28 -3.4023 -57.4896 153° Southeast  Level FlightAware Approximate
03:29 -3.5262 -57.4261 153° Southeast  Level FlightAware Approximate
03:30 -3.6500 -57.3626 153° Southeast  Level FlightAware Approximate
03:31 -3.7739 -57.2991 153° Southeast  Level FlightAware Approximate
03:32 -3.8978 -57.2356 153° Southeast  Level FlightAware Approximate
03:33 -4.0216 -57.1720 153° Southeast  Level FlightAware Approximate
03:34 -4.1455 -57.1085 153° Southeast  Level FlightAware Approximate
03:35 -4.2693 -57.0449 153° Southeast  Level FlightAware Approximate
03:36 -4.3932 -56.9813 153° Southeast  Level FlightAware Approximate
03:37 -4.5170 -56.9177 153° Southeast  Level FlightAware Approximate
03:38 -4.6409 -56.8540 153° Southeast  Level FlightAware Approximate
03:39 -4.7647 -56.7904 153° Southeast  Level FlightAware Approximate
03:40 -4.8885 -56.7267 153° Southeast  Level FlightAware Approximate
03:41 -5.0123 -56.6630 153° Southeast  Level FlightAware Approximate
03:42 -5.1361 -56.5992 153° Southeast  Level FlightAware Approximate
03:43 -5.2599 -56.5355 153° Southeast  Level FlightAware Approximate
03:44 -5.3837 -56.4717 153° Southeast  Level FlightAware Approximate
03:45 -5.5075 -56.4079 153° Southeast  Level FlightAware Approximate
03:46 -5.6313 -56.3440 153° Southeast  Level FlightAware Approximate
03:47 -5.7551 -56.2802 153° Southeast  Level FlightAware Approximate
03:48 -5.8789 -56.2163 153° Southeast  Level FlightAware Approximate
03:49 -6.0026 -56.1524 153° Southeast  Level FlightAware Approximate
03:50 -6.1264 -56.0884 153° Southeast  Level FlightAware Approximate
03:51 -6.2501 -56.0244 153° Southeast  Level FlightAware Approximate
03:52 -6.3739 -55.9604 153° Southeast  Level FlightAware Approximate
03:53 -6.4976 -55.8964 153° Southeast  Level FlightAware Approximate
03:54 -6.6213 -55.8323 153° Southeast  Level FlightAware Approximate
03:55 -6.7450 -55.7682 153° Southeast  Level FlightAware Approximate
03:56 -6.8688 -55.7040 153° Southeast  Level FlightAware Approximate
03:57 -6.9925 -55.6399 153° Southeast  Level FlightAware Approximate
03:58 -7.1161 -55.5757 153° Southeast  Level FlightAware Approximate
03:59 -7.2398 -55.5114 153° Southeast  Level FlightAware Approximate
04:00 -7.3635 -55.4472 153° Southeast  Level FlightAware Approximate
04:01 -7.4872 -55.3828 153° Southeast  Level FlightAware Approximate
04:02 -7.6108 -55.3185 153° Southeast  Level FlightAware Approximate
04:03 -7.7344 -55.2541 153° Southeast  Level FlightAware Approximate
04:04 -7.8581 -55.1897 153° Southeast  Level FlightAware Approximate
04:05 -7.9817 -55.1252 153° Southeast  Level FlightAware Approximate
04:06 -8.1053 -55.0607 153° Southeast  Level FlightAware Approximate
04:07 -8.2289 -54.9962 153° Southeast  Level FlightAware Approximate
04:08 -8.3525 -54.9316 153° Southeast  Level FlightAware Approximate
04:09 -8.4761 -54.8670 153° Southeast  Level FlightAware Approximate
04:10 -8.5997 -54.8023 153° Southeast  Level FlightAware Approximate
04:11 -8.7233 -54.7376 153° Southeast  Level FlightAware Approximate
04:12 -8.8468 -54.6729 153° Southeast  Level FlightAware Approximate
04:13 -8.9703 -54.6081 153° Southeast  Level FlightAware Approximate
04:14 -9.0939 -54.5433 153° Southeast  Level FlightAware Approximate
04:15 -9.2174 -54.4784 153° Southeast  Level FlightAware Approximate
04:16 -9.3407 -54.4136 153° Southeast  Level FlightAware Approximate
04:17 -9.4639 -54.3487 153° Southeast  Level FlightAware Approximate
04:18 -9.5872 -54.2838 153° Southeast  Level FlightAware Approximate
04:19 -9.7105 -54.2189 153° Southeast  Level FlightAware Approximate
04:20 -9.8337 -54.1539 153° Southeast  Level FlightAware Approximate
04:21 -9.9569 -54.0888 153° Southeast  Level FlightAware Approximate
04:22 -10.0801 -54.0237 153° Southeast  Level FlightAware Approximate
04:23 -10.2033 -53.9586 153° Southeast  Level FlightAware Approximate
04:24 -10.3265 -53.8934 152° Southeast  Level FlightAware Approximate
04:25 -10.4497 -53.8282 152° Southeast  Level FlightAware Approximate
04:26 -10.5728 -53.7629 152° Southeast  Level FlightAware Approximate
04:27 -10.6960 -53.6975 152° Southeast  Level FlightAware Approximate
04:28 -10.8191 -53.6321 152° Southeast  Level FlightAware Approximate
04:29 -10.9422 -53.5667 152° Southeast  Level FlightAware Approximate
04:30 -11.0653 -53.5011 152° Southeast  Level FlightAware Approximate
04:31 -11.1884 -53.4356 152° Southeast  Level FlightAware Approximate
04:32 -11.3115 -53.3699 152° Southeast  Level FlightAware Approximate
04:33 -11.4346 -53.3043 152° Southeast  Level FlightAware Approximate
04:34 -11.5576 -53.2385 152° Southeast  Level FlightAware Approximate
04:35 -11.6806 -53.1727 152° Southeast  Level FlightAware Approximate
04:36 -11.8037 -53.1069 152° Southeast  Level FlightAware Approximate
04:37 -11.9267 -53.0410 152° Southeast  Level FlightAware Approximate
04:38 -12.0497 -52.9750 152° Southeast  Level FlightAware Approximate
04:39 -12.1726 -52.9090 152° Southeast  Level FlightAware Approximate
04:40 -12.2956 -52.8429 152° Southeast  Level FlightAware Approximate
04:41 -12.4185 -52.7767 152° Southeast  Level FlightAware Approximate
04:42 -12.5414 -52.7105 152° Southeast  Level FlightAware Approximate
04:43 -12.6643 -52.6442 152° Southeast  Level FlightAware Approximate
04:44 -12.7872 -52.5779 152° Southeast  Level FlightAware Approximate
04:45 -12.9101 -52.5115 152° Southeast  Level FlightAware Approximate
04:46 -13.0330 -52.4450 152° Southeast  Level FlightAware Approximate
04:47 -13.1558 -52.3785 152° Southeast  Level FlightAware Approximate
04:48 -13.2786 -52.3119 152° Southeast  Level FlightAware Approximate
04:49 -13.4014 -52.2452 152° Southeast  Level FlightAware Approximate
04:50 -13.5242 -52.1785 152° Southeast  Level FlightAware Approximate
04:51 -13.6470 -52.1117 152° Southeast  Level FlightAware Approximate
04:52 -13.7697 -52.0448 152° Southeast  Level FlightAware Approximate
04:53 -13.8925 -51.9778 152° Southeast  Level FlightAware Approximate
04:54 -14.0152 -51.9108 152° Southeast  Level FlightAware Approximate
04:55 -14.1379 -51.8437 152° Southeast  Level FlightAware Approximate
04:56 -14.2606 -51.7766 152° Southeast  Level FlightAware Approximate
04:57 -14.3832 -51.7093 152° Southeast  Level FlightAware Approximate
04:58 -14.5059 -51.6420 152° Southeast  Level FlightAware Approximate
04:59 -14.6285 -51.5746 152° Southeast  Level FlightAware Approximate
05:00 -14.7511 -51.5072 152° Southeast  Level FlightAware Approximate
05:01 -14.8737 -51.4396 152° Southeast  Level FlightAware Approximate
05:02 -14.9962 -51.3720 152° Southeast  Level FlightAware Approximate
05:03 -15.1188 -51.3043 152° Southeast  Level FlightAware Approximate
05:04 -15.2413 -51.2365 152° Southeast  Level FlightAware Approximate
05:05 -15.3638 -51.1687 152° Southeast  Level FlightAware Approximate
05:06 -15.4863 -51.1008 152° Southeast  Level FlightAware Approximate
05:07 -15.6087 -51.0328 152° Southeast  Level FlightAware Approximate
05:08 -15.7312 -50.9647 152° Southeast  Level FlightAware Approximate
05:09 -15.8536 -50.8965 152° Southeast  Level FlightAware Approximate
05:10 -15.9760 -50.8282 152° Southeast  Level FlightAware Approximate
05:11 -16.0984 -50.7599 152° Southeast  Level FlightAware Approximate
05:12 -16.2207 -50.6915 152° Southeast  Level FlightAware Approximate
05:13 -16.3431 -50.6230 152° Southeast  Level FlightAware Approximate
05:14 -16.4654 -50.5544 152° Southeast  Level FlightAware Approximate
05:15 -16.5877 -50.4857 152° Southeast  Level FlightAware Approximate
05:16 -16.7099 -50.4169 152° Southeast  Level FlightAware Approximate
05:17 -16.8322 -50.3481 152° Southeast  Level FlightAware Approximate
05:18 -16.9544 -50.2791 152° Southeast  Level FlightAware Approximate
05:19 -17.0766 -50.2101 152° Southeast  Level FlightAware Approximate
05:20 -17.1988 -50.1410 152° Southeast  Level FlightAware Approximate
05:21 -17.3209 -50.0717 152° Southeast  Level FlightAware Approximate
05:22 -17.4430 -50.0024 152° Southeast  Level FlightAware Approximate
05:23 -17.5651 -49.9330 152° Southeast  Level FlightAware Approximate
05:24 -17.6872 -49.8635 152° Southeast  Level FlightAware Approximate
05:25 -17.8093 -49.7939 152° Southeast  Level FlightAware Approximate
05:26 -17.9313 -49.7243 151° Southeast  Level FlightAware Approximate
05:27 -18.0533 -49.6545 151° Southeast  Level FlightAware Approximate
05:28 -18.1753 -49.5846 151° Southeast  Level FlightAware Approximate
05:29 -18.2972 -49.5146 151° Southeast  Level FlightAware Approximate
05:30 -18.4192 -49.4445 151° Southeast  Level FlightAware Approximate
05:31 -18.5411 -49.3744 151° Southeast  Level FlightAware Approximate
05:32 -18.6629 -49.3041 151° Southeast  Level FlightAware Approximate
05:32 -19.0010 -49.4960 151° Southeast 529 609 39,000  Level FlightAware
05:33 -18.7848 -49.2337 151° Southeast  Level FlightAware Approximate
05:33 -19.0850 -49.4490 152° Southeast 529 609 39,000  Level FlightAware
05:33 -19.1860 -49.3940 153° Southeast 529 609 39,000  Level FlightAware
05:34 -19.2720 -49.3460 152° Southeast 529 609 39,000  Level FlightAware
05:35 -19.3670 -49.2940 153° Southeast 529 609 39,000  Level FlightAware
05:35 -19.4660 -49.2400 153° Southeast 529 609 39,000  Level FlightAware
05:36 -19.5550 -49.1910 153° Southeast 528 608 39,000  Level FlightAware
05:37 -19.6410 -49.1430 152° Southeast 527 606 39,000  Level FlightAware
05:37 -19.7270 -49.0950 152° Southeast 526 605 39,000  Level FlightAware
05:38 -19.8240 -49.0410 152° Southeast 525 604 39,000  Level FlightAware
05:39 -19.9070 -48.9950 152° Southeast 524 603 39,000  Level FlightAware
05:40 -20.0080 -48.9390 152° Southeast 524 603 39,000  Level FlightAware
05:40 -20.0930 -48.8910 152° Southeast 524 603 39,000  Level FlightAware
05:41 -20.1930 -48.8350 152° Southeast 524 603 39,000  Level FlightAware
05:42 -20.2790 -48.7870 152° Southeast 524 603 39,000  Level FlightAware
05:42 -20.3660 -48.7390 153° Southeast 525 604 39,000  Level FlightAware
05:43 -20.4590 -48.6900 154° Southeast 524 603 39,000  Level FlightAware
05:44 -20.5420 -48.6460 154° Southeast 525 604 39,000  Level FlightAware
05:44 -20.6350 -48.5970 154° Southeast 525 604 39,000  Level FlightAware
05:45 -20.7360 -48.5430 153° Southeast 525 604 39,000  Level FlightAware
05:46 -20.8240 -48.4960 153° Southeast 526 605 39,000  Level FlightAware
05:47 -20.9180 -48.4450 153° Southeast 526 605 39,000  Level FlightAware
05:47 -21.0060 -48.3980 154° Southeast 526 605 39,000  Level FlightAware
05:48 -21.0910 -48.3480 151° Southeast 533 613 39,000  Level FlightAware
05:49 -21.1760 -48.2660 138° Southeast 543 625 39,000  Level FlightAware
05:49 -21.2460 -48.1870 134° Southeast 543 625 39,000  Level FlightAware
05:50 -21.3040 -48.1210 133° Southeast 542 624 39,000  Level FlightAware
05:51 -21.3660 -48.0490 133° Southeast 541 623 39,000  Level FlightAware
05:51 -21.4360 -47.9700 134° Southeast 540 621 39,000  Level FlightAware
05:52 -21.5100 -47.8860 133° Southeast 541 623 39,000  Level FlightAware
05:53 -21.5790 -47.8090 134° Southeast 540 621 39,000  Level FlightAware
05:53 -21.6580 -47.7190 133° Southeast 536 617 39,000  Level FlightAware
05:54 -21.7270 -47.6410 134° Southeast 525 604 39,000 -960 Level FlightAware
05:55 -21.7990 -47.5580 133° Southeast 523 602 37,700 -1,560 Descending FlightAware
05:55 -21.8630 -47.4840 133° Southeast 508 585 36,800 -1,560 Descending FlightAware
05:56 -21.9360 -47.4000 133° Southeast 495 570 35,500 -1,500 Descending FlightAware
05:57 -22.0050 -47.3400 141° Southeast 462 532 34,700 -1,320 Descending FlightAware
05:58 -22.0820 -47.3040 157° South 438 504 33,800 -1,560 Descending FlightAware
05:58 -22.1650 -47.2700 159° South 428 493 32,500 -1,980 Descending FlightAware
05:59 -22.2360 -47.2410 159° South 416 479 31,000 -2,280 Descending FlightAware
06:00 -22.3100 -47.2100 159° South 400 460 29,300 -2,580 Descending FlightAware
06:00 -22.3800 -47.1820 160° South 379 436 27,400 -2,640 Descending FlightAware
06:01 -22.4430 -47.1550 158° South 367 422 25,800 -2,520 Descending FlightAware
06:02 -22.5170 -47.1230 158° South 352 405 23,900 -2,400 Descending FlightAware
06:02 -22.5760 -47.0980 159° South 346 398 22,400 -2,400 Descending FlightAware
06:03 -22.6440 -47.0690 159° South 331 381 20,500 -2,280 Descending FlightAware
06:04 -22.7090 -47.0420 159° South 332 382 19,000 -1,740 Descending FlightAware
06:05 -22.7650 -47.0190 159° South 326 375 18,100 -1,440 Descending FlightAware
06:05 -22.8220 -46.9950 159° South 316 364 17,100 -1,380 Descending FlightAware
06:06 -22.8770 -46.9720 159° South 314 361 16,300 -1,380 Descending FlightAware
06:07 -22.9360 -46.9470 159° South 291 335 15,200 -1,680 Descending FlightAware
06:07 -22.9860 -46.9260 159° South 276 318 14,000 -1,860 Descending FlightAware
06:08 -23.0410 -46.9030 159° South 278 320 12,600 -1,920 Descending FlightAware
06:09 -23.0880 -46.8830 159° South 277 319 11,300 -1,560 Descending FlightAware
06:10 -23.1420 -46.8600 159° South 275 316 10,400 -1,200 Descending FlightAware
06:10 -23.1710 -46.8480 159° South 273 314 9,900 -1,320 Descending FlightAware
06:10 -23.2010 -46.8350 158° South 265 305 9,300 -1,440 Descending FlightAware
06:11 -23.2360 -46.8200 159° South 265 305 8,600 -1,320 Descending FlightAware
06:11 -23.2710 -46.8060 160° South 264 304 8,000 -1,140 Descending FlightAware
06:12 -23.3060 -46.7910 159° South 260 299 7,500 -780 Descending FlightAware
06:12 -23.3330 -46.7790 158° South 239 275 7,300 -600 Descending FlightAware
06:13 -23.3630 -46.7660 158° South 215 247 7,000 -840 Descending FlightAware
06:13 -23.3770 -46.7580 152° Southeast 215 247 6,700 -1,380 Descending FlightAware
06:13 -23.3960 -46.7410 141° Southeast 217 250 6,100 -1,320 Descending FlightAware
06:14 -23.4180 -46.7200 139° Southeast 201 231 5,500 -1,020 Descending FlightAware
06:14 -23.4360 -46.7030 139° Southeast 196 226 5,200 -720 Descending FlightAware
06:15 -23.4510 -46.6850 132° Southeast 190 219 4,900 -960 Descending FlightAware
06:15 -23.4600 -46.6640 115° Southeast 177 204 4,400 -600 Descending FlightAware
06:16 -23.4700 -46.6410 115° Southeast 166 191 4,400  Level FlightAware
06:16 -23.4750 -46.6250 109° East 164 189 4,400  Level FlightAware
06:16 -23.4720 -46.6110 77° East 157 181 4,400 -300 Level FlightAware
06:17 -23.4680 -46.5970 73° East 142 163 4,200 -600 Descending FlightAware
06:17 -23.4640 -46.5810 75° East 135 155 3,900 -780 Descending FlightAware
06:18 -23.4590 -46.5610 75° East 127 146 3,500 -780 Descending FlightAware
06:18 -23.4570 -46.5560 66° East 126 145 3,400 -600 Descending FlightAware
06:19 -23.4490 -46.5250 74° East 128 147 2,900 -720 Descending FlightAware
06:19 -23.4430 -46.5010 75° East 129 148 2,500 -780 Descending FlightAware
06:20 -23.4380 -46.4850 71° East 132 152 2,200 -720 Descending FlightAware